"Pseudo-MPEC" for P10Mmzj

Created 2019 Apr 22 2:07:24 UT using Find_Orb

Click here for an explanation of pseudo-MPECs

 
 Astrometry: 
     P10Mmzj  C2019 04 02CWy=,]$;FPfHtDU?W$AMh)4DbA+]AC$\^wHM4J3J1,'6N.X1BMHCF51
     P10Mmzj  C2019 04 02X`d4]Cp_'na^uv.wc3conSw#1/E3\HVo.u)Er+SHl7CBu+g^![7RF51
     P10Mmzj  C2019 04 02^Ha^5x,kGn@P98*xF,E]*g7%M$=(`TZxVv\ktB6ujWK*I0\o'-IDF51
     P10Mmzj KC2019 04 03%v#B$cP^;,ZxQ.th)ey/IHs+ri3Yj6WI2Zl6wvNAstrometry9)cH21
     P10Mmzj KC2019 04 03k4qeUP!y$7_PZLcJb@ttU@d,8EyUj4'Vj\`FT:$ES.%%q*gkX;FRH21
     P10Mmzj KC2019 04 03YSnKRH'C6.SZDmxa^C:l?=,`/U/p4?`ogAlWOy7sFrK.0HH#Jht1H21
     P10Mmzj  C2019 04 03.32180 13 27 21.94 -04 10 43.5    ~438I       VNEOCPI52
     P10Mmzj  C2019 04 03.32691 13 27 21.24 -04 10 38.0    ~438I       VNEOCPI52
     P10Mmzj  C2019 04 03.32858 13 27 21.09 -04 10 35.9    ~438I 21.1 GVNEOCPI52
     P10Mmzj  C2019 04 03.33024 13 27 20.93 -04 10 34.1    ~438I       VNEOCPI52
     P10Mmzj 1C2019 04 03()O^mFL/efX,-$=6#TcJ427\ZnahL+L!C?!oNf\-LC1iZixCm$2%Q62
     P10Mmzj 1C2019 04 03oH9=/`[!27D+8mYYO@+s,O-OMPredacted;v+b!U1:Lt0201xG/)Q62
     P10Mmzj 1C2019 04 039#=rR7X%wafLh=HMY#(DrU?(A)n@*#IC@p3X(lUiY\WP**/bg.4vQ62
     P10Mmzj  C2019 04 07.06569 13 19 31.91 -03 01 42.1    ~4773 21.8 VVNEOCP033
     P10Mmzj  C2019 04 07.06926 13 19 31.45 -03 01 38.0    ~4773 21.6 VVNEOCP033
     P10Mmzj  C2019 04 07.07284 13 19 30.98 -03 01 34.3    ~4773 21.5 VVNEOCP033
     P10Mmzj  C2019 04 07.07640 13 19 30.49 -03 01 30.8    ~4773 21.7 VVNEOCP033
     P10Mmzj  C2019 04 07.07998 13 19 30.02 -03 01 26.8    ~4773 21.5 VVNEOCP033
     P10Mmzj |C2019 04 07M=0d7:Ba]H[-595\o$;Q5E5tTQ;be7i\.SFFmha+kB8Z\N+,W6vV807
     P10Mmzj |C2019 04 07%p1W1MBqX0J%VrG=#clickl:;MvCi[P!qLWPvB-aJ*cAbMEA^=CU807
     P10Mmzj |C2019 04 07t5o6bEY,/-Q5(1a5L1s5,6=QW!ITVCjL3,Km8RVy)F1WY!*jtsP0807
     P10Mmzj  C2019 04 076[Bk*vH(@N;Myb?+?s5ekv$UhereZn*.x:xY6jglF-@;4s$.YC[HF51
     P10Mmzj  C2019 04 07bLH8PXsxb[PVY/mIM4;MA5i0cmBforjSD,%FD/$qafR7C2j5($QUF51
     P10Mmzj  C2019 04 07y@D/]k'Y5Z#A9JfN]cojT8U\7]:B89=7#\^ZLs7m2a35jKR_;-Q=F51
     P10Mmzj  C2019 04 07g.y'Qktn\QHs6\E/t8u50YQ=lJI/@6q?qHdlp!wstgUsP)1Lsk6RF51
     P10Mmzj  C2019 04 09BSK4Wtwweop\q5(B6;dmJ]xTHJ'::Y6n^K%YWDq'Cpce`iJ6Pa4^F51
     P10Mmzj  C2019 04 09d8e$Sy:!]?pB7:m?uji^UP'5qf`$xj*QCxRr3Q:JkaC@R3Xac9w=F51
     P10Mmzj  C2019 04 091=YqA_oeC!bvSin@@bke#h`/Urqr2HjweIn`c=`rh\1*F+lkKJ41F51
     P10Mmzj  C2019 04 09Yi)PoR,lq/:2L283*ZI0lT1wJ63^Zqhv@A\38k'J9+DwT.ib?@=vF51
     P10Mmzj KC2019 04 11wAf0%F[nv5Xi'Jp,B0HM.E[phD6c;f`\RJy`0Oby.+Z2!fT15[s4691
     P10Mmzj KC2019 04 11jW:Z@UFZlx*.Qjr[,Ki7+U9L/$;DRO`B,!VV`Tk0`5\Av-d3m?s(691
     P10Mmzj KC2019 04 11_4L7c23J3iPDE7Fy\1_qmZmUD[cauE/q7L^$vqGMoldpFF'_qN@e691
     P10Mmzj  C2019 04 11.30221 13 10 24.59 -01 41 34.7    ~4B7mx21.8 GVNEOCPI52
     P10Mmzj  C2019 04 11.30470 13 10 24.37 -01 41 32.7    ~4B7mx21.0 GVNEOCPI52
     P10Mmzj  C2019 04 11.30720 13 10 23.95 -01 41 28.8    ~4B7mx21.3 GVNEOCPI52
     P10Mmzj  C2019 04 11.30970 13 10 23.65 -01 41 27.0    ~4B7mx21.1 GVNEOCPI52
     P10Mmzj KC2019 04 12)+\aZ'iy-]28.3?$)t)U?!)_@gX@L:[-AwP@+FWq9f*XDdbrjE'0711
     P10Mmzj KC2019 04 12F0I@w':Juv1=Ma72.o]G5h%3,A_QAfagPdb(FRAR=^Z$PFfE*g4L711
     P10Mmzj KC2019 04 12m!Xh`//JQVim^5ojV-o\fE(,Dft28A3qcsZsy+$/explanationt711
     P10Mmzj  C2019 04 15.40227 13 01 24.86 -00 22 58.2    ~4FA3x21.5 GVNEOCPV06
     P10Mmzj  C2019 04 15.40423 13 01 24.63 -00 22 56.2    ~4FA3x21.4 GVNEOCPV06
     P10Mmzj  C2019 04 15.40618 13 01 24.48 -00 22 53.8    ~4FA3x      VNEOCPV06
     P10Mmzj  C2019 04 15.40814 13 01 24.21 -00 22 51.9    ~4FA3x      VNEOCPV06

Station data:
(033) Karl Schwarzschild Observatory, Tautenburg  (N50.980140 E11.711240)
   Germany. 1.3-m Schmidt.
(691) Steward Observatory, Kitt Peak - Spacewatch  (N31.962174 W111.600327)
   US/Arizona.  Observer J. V. Scotti. 0.9-m f/3 reflector + CCD.
(711) McDonald Observatory, Fort Davis  (N30.671481 W104.021500)  US/Texas.
   0.76-m f/3.0 reflector.
(807) Cerro Tololo Observatory, La Serena  (S30.169136 W70.805900)  Chile.
(F51) Pan-STARRS 1, Haleakala  (N20.707235 W156.255910)  US/Hawaii.
   Observers N. Primak, A. Schultz, S. Watters, J. Thiel, T. Goggia. Measurer
   PS1 Science Consortium. 1.8-m Ritchey-Chrétien + CCD.
(H21) Astronomical Research Observatory, Westfield  (N39.483057 W87.968270)
   US/Illinois. 0.76-m f/3.0 astrograph + CCD.
(I52) Steward Observatory, Mt. Lemmon Station  (N32.442547 W110.788920)
   US/Arizona.  Observers T. A. Pruyne, B. M. Africano, E. J. Christensen, G.
   A. Farneth, D. C. Fuls, A. R. Gibbs, A. D. Grauer, H. Groeller, J. A.
   Johnson, R. A. Kowalski, S. M. Larson, G. J. Leonard, R. L. Seaman, F. C.
   Shelly. 1.0-m reflector + CCD.
(Q62) iTelescope Observatory, Siding Spring  (S31.273289 E149.064420)
   Australia/NSW. 0.50-m f/6.8 astrograph + CCD + focal reducer, 0.70-m f/6.6
   astrograph + CCD.
(V06) Catalina Sky Survey-Kuiper  (N32.416847 W110.732550)  US/Arizona.
   Observers T. A. Pruyne, B. M. Africano, E. J. Christensen, G. A. Farneth,
   D. C. Fuls, A. R. Gibbs, A. D. Grauer, H. Groeller, J. A. Johnson, R. A.
   Kowalski, S. M. Larson, G. J. Leonard, R. L. Seaman, F. C. Shelly. 1.55-m
   reflector + CCD.

Orbital elements:  P10Mmzj
   Perihelion 2019 Dec 20.028643 TT =  0:41:14 (JD 2458837.528643)
Epoch 2019 Apr  9.0 TT = JDT 2458582.5   Ju: 0.0741           AutoNEOCP
M 358.43748654                      (J2000 ecliptic)
n   0.00612681     Peri.   86.85386
a  29.5787293      Node   207.91048
e   0.9259118      Incl.  158.82183
P 160.87           H   16.6     G   0.15   q 2.19143390  Q 56.9660247
26 of 43 observations 2019 Apr. 3-9; mean residual 0".29
Residuals in arcseconds: 
190402 F51( .61+  .22-)   190407 033  .15+  .11+    190411 691( 1.2+  .64+)   
190402 F51( .60+  .03-)   190407 033  .35-  .38-    190411 691( .53+  .12+)   
190402 F51( .55+  .47-)   190407 033  .51-  .40-    190411 I52( .12+  .07+)   
190403 H21  .51+  .14-    190407 807  .31+  .29-    190411 I52( 1.7+  .78-)   
190403 H21  .19+  .03+    190407 807  .09+  .20-    190411 I52( .39+  .26+)   
190403 H21  .38+  .14-    190407 807  .13+  .17+    190411 I52( .84+  .81-)   
190403 I52  .04-  .24-    190407 F51  .34-  .06+    190412 711( .65-  .50+)   
190403 I52  .99-  .30-    190407 F51  .14-  .02+    190412 711( .21+  1.2+)   
190403 I52  .12-  .02-    190407 F51  .25-  .01-    190412 711( .19+  1.1+)   
190403 I52  .58+  .03-    190407 F51  .31+  .13+    190415 V06( .24+  1.3+)   
190403 Q62  .07+  .49+    190409 F51  .18-  .10+    190415 V06( .70+  1.0+)   
190403 Q62  .41-  .05+    190409 F51  .10-  .14+    190415 V06( 2.4+  1.2+)   
190403 Q62  .34-  .27+    190409 F51  .16+  .08-    190415 V06( 2.2+  .83+)   
190407 033  .34+  .33+    190409 F51  .06+  .12-    
190407 033  .31+  .43+    190411 691( 1.0+  .38+)   

Ephemerides (geocentric):
Date (UTC) HH   RA              Dec         delta   r     elong  mag " sig PA
---- -- -- --  -------------   -----------  ------ ------ -----  --- ---- ---
2019 04 22 02  12 46 41.122   +01 44 37.16  2.4277 3.3796 157.8 21.6 1.88 145
2019 04 22 03  12 46 35.638   +01 45 24.34  2.4277 3.3793 157.7 21.6 1.90 145
2019 04 22 04  12 46 30.154   +01 46 11.50  2.4277 3.3790 157.7 21.6 1.92 145
2019 04 22 05  12 46 24.670   +01 46 58.66  2.4277 3.3787 157.6 21.6 1.94 145
2019 04 22 06  12 46 19.188   +01 47 45.80  2.4277 3.3783 157.5 21.6 1.96 145
2019 04 22 07  12 46 13.706   +01 48 32.94  2.4277 3.3780 157.5 21.6 1.98 145
2019 04 22 08  12 46 08.225   +01 49 20.06  2.4277 3.3777 157.4 21.6 2.00 145
2019 04 22 09  12 46 02.744   +01 50 07.17  2.4277 3.3774 157.3 21.6 2.02 145
2019 04 22 10  12 45 57.265   +01 50 54.27  2.4277 3.3771 157.3 21.6 2.04 145
2019 04 22 11  12 45 51.786   +01 51 41.36  2.4277 3.3768 157.2 21.6 2.06 145
2019 04 22 12  12 45 46.307   +01 52 28.44  2.4277 3.3765 157.1 21.6 2.08 144
2019 04 22 13  12 45 40.830   +01 53 15.51  2.4277 3.3762 157.1 21.6 2.10 144
2019 04 22 14  12 45 35.353   +01 54 02.57  2.4277 3.3759 157.0 21.6 2.12 144
2019 04 22 15  12 45 29.877   +01 54 49.62  2.4277 3.3755 156.9 21.6 2.14 144
2019 04 22 16  12 45 24.402   +01 55 36.65  2.4277 3.3752 156.9 21.6 2.16 144
2019 04 22 17  12 45 18.928   +01 56 23.68  2.4277 3.3749 156.8 21.6 2.18 144
2019 04 22 18  12 45 13.454   +01 57 10.69  2.4277 3.3746 156.7 21.6 2.20 144
2019 04 22 19  12 45 07.981   +01 57 57.69  2.4277 3.3743 156.7 21.6 2.22 144
2019 04 22 20  12 45 02.509   +01 58 44.68  2.4277 3.3740 156.6 21.6 2.24 144
2019 04 22 21  12 44 57.038   +01 59 31.66  2.4277 3.3737 156.6 21.6 2.26 144
2019 04 22 22  12 44 51.567   +02 00 18.63  2.4277 3.3734 156.5 21.6 2.29 144
2019 04 22 23  12 44 46.097   +02 01 05.59  2.4277 3.3731 156.4 21.6 2.31 143
2019 04 23 00  12 44 40.629   +02 01 52.53  2.4277 3.3727 156.4 21.6 2.33 143
2019 04 23 01  12 44 35.161   +02 02 39.47  2.4277 3.3724 156.3 21.6 2.35 143
2019 04 23 02  12 44 29.693   +02 03 26.39  2.4277 3.3721 156.2 21.6 2.37 143
2019 04 23 03  12 44 24.227   +02 04 13.30  2.4277 3.3718 156.2 21.6 2.39 143
2019 04 23 04  12 44 18.761   +02 05 00.19  2.4277 3.3715 156.1 21.6 2.42 143
2019 04 23 05  12 44 13.297   +02 05 47.08  2.4277 3.3712 156.0 21.6 2.44 143
2019 04 23 06  12 44 07.833   +02 06 33.95  2.4277 3.3709 156.0 21.6 2.46 143
2019 04 23 07  12 44 02.370   +02 07 20.81  2.4278 3.3706 155.9 21.6 2.48 143
2019 04 23 08  12 43 56.908   +02 08 07.66  2.4278 3.3703 155.8 21.6 2.50 143
2019 04 23 09  12 43 51.447   +02 08 54.50  2.4278 3.3700 155.8 21.6 2.53 143
2019 04 23 10  12 43 45.986   +02 09 41.33  2.4278 3.3696 155.7 21.7 2.55 143
2019 04 23 11  12 43 40.527   +02 10 28.14  2.4278 3.3693 155.6 21.7 2.57 142
2019 04 23 12  12 43 35.068   +02 11 14.94  2.4278 3.3690 155.6 21.7 2.60 142
2019 04 23 13  12 43 29.611   +02 12 01.73  2.4279 3.3687 155.5 21.7 2.62 142
2019 04 23 14  12 43 24.154   +02 12 48.50  2.4279 3.3684 155.4 21.7 2.64 142
2019 04 23 15  12 43 18.698   +02 13 35.26  2.4279 3.3681 155.4 21.7 2.67 142
2019 04 23 16  12 43 13.243   +02 14 22.02  2.4279 3.3678 155.3 21.7 2.69 142
2019 04 23 17  12 43 07.789   +02 15 08.75  2.4279 3.3675 155.3 21.7 2.71 142
2019 04 23 18  12 43 02.336   +02 15 55.48  2.4280 3.3672 155.2 21.7 2.74 142
2019 04 23 19  12 42 56.884   +02 16 42.19  2.4280 3.3668 155.1 21.7 2.76 142
2019 04 23 20  12 42 51.433   +02 17 28.89  2.4280 3.3665 155.1 21.7 2.79 142
2019 04 23 21  12 42 45.982   +02 18 15.58  2.4280 3.3662 155.0 21.7 2.81 142
2019 04 23 22  12 42 40.533   +02 19 02.25  2.4281 3.3659 154.9 21.7 2.83 142
2019 04 23 23  12 42 35.085   +02 19 48.91  2.4281 3.3656 154.9 21.7 2.86 141
2019 04 24 00  12 42 29.637   +02 20 35.56  2.4281 3.3653 154.8 21.7 2.88 141
2019 04 24 01  12 42 24.191   +02 21 22.19  2.4282 3.3650 154.7 21.7 2.91 141